TimeCDT,TemperatureF,Dew PointF,Humidity,Sea Level PressureIn,VisibilityMPH,Wind Direction,Wind SpeedMPH,Gust SpeedMPH,PrecipitationIn,Events,Conditions,WindDirDegrees,DateUTC
12:56 AM,81.0,66.0,60,30.03,10.0,Calm,Calm,-,N/A,,Mostly Cloudy,0,2013-09-17 05:56:00
1:56 AM,81.0,66.9,62,30.04,10.0,ENE,6.9,-,N/A,,Mostly Cloudy,70,2013-09-17 06:56:00
2:56 AM,80.1,66.9,64,30.04,10.0,ENE,4.6,-,N/A,,Mostly Cloudy,70,2013-09-17 07:56:00
3:56 AM,79.0,66.9,66,30.03,10.0,SE,3.5,-,N/A,,Mostly Cloudy,130,2013-09-17 08:56:00
4:56 AM,77.0,66.9,71,30.03,10.0,SE,3.5,-,N/A,,Mostly Cloudy,130,2013-09-17 09:56:00
5:56 AM,75.9,66.0,71,30.04,10.0,ENE,3.5,-,N/A,,Mostly Cloudy,70,2013-09-17 10:56:00
6:56 AM,75.0,64.0,69,30.05,10.0,East,3.5,-,N/A,,Mostly Cloudy,80,2013-09-17 11:56:00
7:56 AM,77.0,62.1,60,30.07,10.0,Calm,Calm,-,N/A,,Mostly Cloudy,0,2013-09-17 12:56:00
8:56 AM,79.0,61.0,54,30.08,10.0,East,3.5,-,N/A,,Mostly Cloudy,80,2013-09-17 13:56:00
9:56 AM,81.0,62.1,52,30.08,10.0,Calm,Calm,-,N/A,,Mostly Cloudy,0,2013-09-17 14:56:00
10:56 AM,84.9,64.9,51,30.09,10.0,East,5.8,-,N/A,,Mostly Cloudy,80,2013-09-17 15:56:00
11:56 AM,87.1,66.0,49,30.08,10.0,Variable,5.8,-,N/A,,Mostly Cloudy,0,2013-09-17 16:56:00
12:56 PM,91.0,66.9,45,30.05,10.0,Variable,6.9,-,N/A,,Mostly Cloudy,0,2013-09-17 17:56:00
1:56 PM,93.9,66.9,41,30.02,10.0,ESE,8.1,-,N/A,,Mostly Cloudy,110,2013-09-17 18:56:00
2:56 PM,93.9,66.9,41,29.99,10.0,Variable,6.9,-,N/A,,Mostly Cloudy,0,2013-09-17 19:56:00
3:56 PM,93.0,66.0,41,29.96,10.0,ESE,9.2,-,N/A,,Mostly Cloudy,110,2013-09-17 20:56:00
4:56 PM,93.0,66.0,41,29.95,10.0,East,9.2,-,N/A,,Mostly Cloudy,80,2013-09-17 21:56:00
5:56 PM,91.9,64.9,41,29.95,10.0,ESE,8.1,-,N/A,,Mostly Cloudy,110,2013-09-17 22:56:00
6:56 PM,89.1,66.0,46,29.96,10.0,East,8.1,-,N/A,,Mostly Cloudy,90,2013-09-17 23:56:00
7:56 PM,86.0,68.0,55,29.97,10.0,ENE,5.8,-,N/A,,Mostly Cloudy,60,2013-09-18 00:56:00
8:56 PM,84.9,68.0,57,29.99,10.0,East,4.6,-,N/A,,Mostly Cloudy,80,2013-09-18 01:56:00
9:56 PM,84.0,68.0,58,29.99,10.0,Variable,3.5,-,N/A,,Mostly Cloudy,0,2013-09-18 02:56:00
10:56 PM,82.9,68.0,60,29.99,10.0,ESE,3.5,-,N/A,,Scattered Clouds,120,2013-09-18 03:56:00
11:56 PM,82.0,68.0,62,29.99,10.0,SE,3.5,-,N/A,,Mostly Cloudy,140,2013-09-18 04:56:00